Theta_e
317 315 315 319 321 321 320 321 322 321 319 317 316 317 317 318 318 317 317 317 317 318 317 315 317 319 319 319 320 320 319 321 321 319 322 325 329 334 336 335 335 336 337 336 335 335 334 333 333 334 335 335 334 334 330 327 329 331 330 329 330 330 328 327 326 326 327 326 325 325 323 320 319 316 314 313 311 306 306 306 306 307 307 308 311 315 315 318 320 320 321 318 313 313 313 312 310
316 315 317 321 321 322 322 321 321 318 317 315 316 318 317 317 317 319 318 317 320 320 317 316 318 319 320 320 320 320 323 323 320 323 324 324 330 334 335 335 334 335 336 336 336 335 335 334 333 334 335 335 334 334 333 329 326 328 329 328 328 327 326 325 325 326 327 324 323 324 324 324 322 320 317 316 313 308 305 305 306 306 306 310 316 320 321 322 321 320 323 321 314 308 308 308 308
315 314 318 322 321 322 322 321 319 315 314 313 315 318 316 317 318 318 317 320 320 317 317 318 319 320 320 321 320 321 327 325 319 323 324 326 333 333 335 335 335 336 336 336 336 336 336 334 333 334 335 334 334 334 334 331 325 323 326 326 326 325 324 324 324 325 325 323 323 323 325 325 324 322 320 318 315 310 306 305 305 306 306 310 317 322 323 322 323 324 326 323 315 308 308 308 308
315 314 319 323 322 322 322 322 319 315 314 313 315 317 317 318 318 317 319 321 319 316 318 319 321 320 320 321 320 320 326 326 321 324 327 330 333 333 334 335 335 336 337 337 336 336 335 334 333 334 334 334 334 334 333 330 324 321 322 323 323 323 322 324 325 325 325 324 323 324 325 326 324 323 321 320 318 314 309 305 305 305 305 308 314 321 323 322 322 324 322 316 311 309 310 309 308
314 315 319 323 324 322 322 321 319 317 315 315 315 317 318 318 317 318 320 320 317 316 317 320 322 320 320 321 320 322 325 326 322 324 329 329 330 332 334 335 335 336 337 337 336 336 335 335 334 334 335 335 334 333 333 329 325 320 320 321 321 322 322 323 324 325 325 324 323 324 325 325 324 323 322 320 318 316 312 307 305 305 307 312 316 321 324 324 323 321 318 315 313 314 315 311 309
315 317 320 321 322 320 321 319 318 317 317 318 317 317 317 317 318 319 320 318 316 315 316 318 320 320 322 321 319 322 324 325 324 323 327 328 329 332 335 335 335 335 337 337 336 337 336 335 335 334 334 335 334 333 332 330 327 323 320 321 321 322 323 323 324 325 325 324 324 325 325 325 324 323 323 321 318 317 314 309 306 305 310 317 320 323 325 325 323 322 322 322 320 317 313 310 308
318 320 320 320 320 320 321 318 317 318 317 316 318 317 317 317 318 319 319 318 316 315 316 316 318 320 322 320 319 320 321 322 323 324 325 328 330 333 335 335 335 335 337 337 337 337 336 335 335 335 335 335 335 334 333 331 329 326 323 322 322 323 323 322 323 324 324 324 325 326 326 326 325 324 323 321 319 317 314 309 306 305 308 316 322 323 324 324 324 323 323 320 316 311 308 307 307
319 320 320 321 322 321 321 318 318 319 316 314 316 316 317 317 317 319 319 318 316 316 317 316 317 319 318 319 321 320 319 320 320 321 323 326 328 331 334 335 335 336 338 338 337 337 336 336 335 335 335 335 335 335 334 332 331 328 325 324 324 323 322 322 322 322 323 324 325 326 326 326 326 325 324 322 319 317 314 309 306 306 307 313 320 322 322 324 323 320 317 312 308 307 307 306 306
319 320 320 321 321 321 319 319 318 318 316 315 315 315 315 316 315 318 319 317 315 316 318 318 317 317 317 319 321 320 318 318 317 319 321 321 322 326 332 335 335 336 338 338 338 337 336 336 335 335 335 335 335 334 334 334 332 331 329 326 325 323 322 322 322 322 322 324 325 325 325 325 325 325 324 322 319 316 314 310 306 305 305 308 313 316 318 318 314 310 309 307 306 306 306 306 306
319 319 321 322 320 319 317 317 319 317 316 316 315 314 315 314 314 316 318 317 315 316 318 318 316 315 318 320 320 319 317 317 317 318 319 318 317 319 328 335 335 336 338 338 338 338 337 337 336 336 336 335 335 335 335 335 334 332 332 330 327 324 323 323 324 323 322 323 323 324 325 324 324 324 324 322 319 316 314 311 307 305 305 305 306 308 309 308 306 306 306 305 306 306 306 305 305
320 319 320 320 318 317 316 317 319 318 316 315 315 314 314 314 313 314 315 315 314 316 318 317 317 316 318 320 319 318 315 316 317 317 318 317 317 317 324 333 335 335 338 338 338 338 337 338 336 336 336 336 335 335 335 335 334 334 333 331 328 325 324 324 325 324 323 323 323 324 325 324 323 322 323 321 319 316 313 311 308 306 305 305 304 305 304 305 305 305 305 305 305 305 305 305 304
321 321 320 319 318 317 317 318 318 318 316 315 315 314 314 313 313 314 314 315 315 316 318 317 317 317 318 320 318 316 314 316 315 316 317 317 318 317 320 331 335 335 338 338 338 337 337 337 337 336 336 336 336 335 336 335 335 334 333 332 330 328 326 325 326 326 324 324 324 324 324 324 323 322 322 321 319 316 314 312 310 309 307 306 305 305 304 304 304 304 304 304 304 304 304 304 304
321 322 321 319 318 319 319 318 318 318 317 316 316 314 314 313 314 315 315 315 316 316 317 317 316 316 318 318 317 315 314 315 315 316 317 317 318 318 317 325 334 334 336 337 337 336 337 338 337 336 337 337 336 335 335 335 335 334 334 333 331 329 329 327 327 327 325 324 324 323 323 322 322 323 322 321 320 318 316 314 313 312 311 310 308 307 306 306 305 305 305 306 306 307 307 307 307
320 321 321 319 316 318 318 318 317 317 317 316 315 313 313 313 314 314 315 316 316 316 316 315 315 316 317 317 316 316 314 314 315 315 316 317 318 319 318 321 331 332 332 335 335 334 336 337 336 336 337 337 337 336 336 335 335 335 334 333 332 330 329 328 327 328 327 324 322 321 321 321 322 323 322 321 320 319 318 317 315 315 314 313 312 311 310 309 309 309 311 312 313 314 314 314 313
318 319 321 320 317 317 317 318 318 317 317 316 314 312 313 313 313 313 314 315 316 315 315 315 315 316 316 316 317 316 315 314 314 315 316 316 318 321 320 321 328 331 330 332 332 333 334 335 335 335 336 336 337 337 336 336 336 335 334 334 333 330 329 328 326 328 328 324 321 319 320 321 321 322 322 321 321 320 320 319 316 316 317 317 316 315 314 314 314 315 317 318 318 318 318 317 317
317 319 321 320 318 317 317 317 317 317 317 316 313 313 313 313 313 313 313 314 315 314 314 315 315 316 316 316 316 315 315 315 314 315 316 316 318 320 323 323 325 328 331 331 330 331 332 333 333 333 334 335 336 337 337 336 336 335 334 334 333 331 330 329 328 328 327 324 322 320 320 320 319 320 320 320 322 320 321 321 318 318 320 319 319 318 317 317 318 319 319 320 320 320 319 319 318
317 319 320 319 318 318 317 317 317 317 317 315 313 312 315 315 313 313 313 313 314 314 314 315 315 315 315 315 315 315 315 315 314 314 315 317 317 318 321 323 324 325 329 331 330 330 331 332 332 332 334 335 334 336 337 336 336 335 335 334 334 333 331 330 329 328 328 325 323 322 321 320 319 319 319 320 322 321 321 322 321 320 321 321 320 319 319 319 320 320 321 321 320 320 319 319 319
317 320 319 318 318 318 318 318 317 317 317 316 313 313 315 315 313 313 314 314 314 314 314 314 315 315 315 315 315 315 315 315 315 314 314 315 317 316 318 320 321 322 324 329 331 330 330 331 332 331 333 335 333 334 335 336 336 335 336 335 334 334 332 331 329 329 329 326 324 323 323 322 320 320 319 320 323 322 321 322 322 321 321 322 321 320 320 320 321 321 321 321 321 320 320 320 319
317 319 317 318 320 318 317 318 316 316 317 316 313 313 315 315 314 314 315 315 314 314 315 314 315 315 315 315 315 315 315 315 315 314 314 314 315 315 315 317 318 319 320 323 326 327 328 328 330 331 332 334 334 333 333 334 335 335 336 336 335 335 333 332 331 330 330 327 325 324 325 325 323 321 321 320 323 323 321 322 322 322 322 322 322 322 320 320 321 321 322 321 321 321 320 320 319
316 317 317 318 319 317 314 315 315 314 314 315 314 312 313 315 314 314 315 316 315 315 316 316 315 316 316 315 315 315 315 315 315 315 314 313 314 314 315 315 316 317 318 318 319 322 324 325 326 328 330 331 333 332 330 330 332 334 334 335 335 334 334 333 332 331 330 328 327 325 326 327 324 322 322 321 323 324 322 322 323 322 323 323 323 323 321 320 320 321 322 321 322 321 321 320 320
315 315 317 316 315 316 315 313 313 313 313 314 314 312 313 314 313 314 315 315 316 317 317 316 316 316 316 316 315 315 315 315 315 315 315 314 314 314 314 315 315 315 316 317 316 317 319 320 321 323 325 327 329 330 329 330 330 331 333 334 334 333 334 333 333 332 330 328 327 326 326 327 326 324 323 322 324 325 323 323 323 323 323 324 325 324 323 322 321 321 321 321 321 321 321 320 320
315 314 315 313 313 316 314 312 313 312 313 313 313 313 314 314 313 314 315 316 317 317 317 316 316 316 316 316 315 315 315 315 315 315 315 315 314 314 315 315 315 315 315 316 315 316 318 319 320 321 321 322 326 329 334 336 333 331 332 332 331 332 333 331 332 333 331 329 327 327 326 327 328 326 324 323 324 325 325 324 324 324 323 325 326 326 325 324 323 322 321 321 322 321 320 320 319
316 314 312 312 313 315 314 312 313 312 313 313 314 314 314 314 314 314 314 316 317 317 316 316 316 316 316 315 315 315 315 315 315 315 315 315 315 315 315 314 315 315 315 316 315 315 318 320 321 321 320 320 324 329 335 338 334 331 331 330 327 330 335 332 331 332 332 329 328 329 327 327 328 326 325 325 324 325 326 324 325 325 324 325 326 326 325 324 324 323 323 322 322 322 320 319 319
317 316 313 313 312 313 313 312 313 312 313 313 313 313 313 314 315 313 313 316 316 316 316 316 316 316 316 315 315 315 315 315 315 315 315 315 315 315 314 314 314 315 315 315 315 315 315 318 319 321 320 318 322 326 331 333 330 330 333 332 327 328 336 336 332 332 332 331 330 330 329 328 328 328 327 326 325 326 326 325 325 325 325 325 326 325 324 324 324 324 324 323 322 321 320 319 318
317 316 313 313 312 312 313 312 312 312 312 313 312 314 314 313 314 313 314 315 316 316 316 315 315 315 316 316 316 315 315 315 315 315 315 315 315 314 314 314 313 314 314 314 314 314 314 314 315 317 317 316 319 321 325 328 328 332 337 336 332 329 330 333 332 331 332 331 331 331 330 329 329 329 328 327 326 327 326 326 326 326 325 326 326 325 324 324 325 324 324 323 322 321 320 319 318
316 315 314 313 313 312 313 312 312 312 312 312 313 314 313 312 313 314 315 316 315 316 315 315 316 315 316 316 316 316 316 316 315 315 315 315 315 314 314 313 313 313 313 313 313 313 313 313 313 314 314 314 316 317 320 322 327 334 338 336 336 332 328 331 334 331 330 330 330 331 331 331 330 330 329 328 327 327 327 327 327 327 326 326 326 325 324 324 325 325 323 322 322 321 320 319 318
313 313 314 314 313 313 313 313 312 312 313 312 314 315 313 312 313 316 317 316 316 316 316 316 316 316 316 316 316 316 316 316 316 316 315 315 315 315 314 314 314 313 313 313 313 313 313 313 313 313 313 313 314 315 316 318 323 329 334 335 336 332 326 330 334 330 328 330 330 330 330 330 330 330 329 329 328 328 328 328 327 327 327 327 326 325 324 324 325 324 322 321 321 321 319 318 317
313 313 315 315 314 314 313 314 313 313 314 313 314 315 313 312 312 316 317 316 316 316 316 316 316 316 316 316 316 316 316 316 315 316 315 315 315 315 315 315 314 314 314 313 313 313 313 313 313 313 313 313 313 314 315 317 319 322 326 328 330 329 325 329 332 325 325 331 331 330 330 329 330 329 327 327 329 328 328 329 328 327 327 327 326 326 325 324 324 323 323 321 320 321 319 317 317
314 314 316 316 315 315 314 313 313 313 314 313 313 315 315 314 314 316 316 316 316 315 315 316 316 316 316 316 316 316 316 315 315 316 315 315 315 315 315 315 314 314 313 313 313 312 312 313 313 313 313 313 313 313 313 314 316 318 319 321 322 322 324 331 330 322 323 330 331 329 331 330 328 328 327 327 328 328 328 329 328 327 327 327 326 326 325 323 323 323 323 322 321 321 319 317 316
315 314 315 316 316 316 314 312 312 313 314 313 313 315 317 317 317 317 316 315 315 315 315 316 316 316 316 316 316 316 316 316 316 316 316 315 315 315 315 315 314 314 313 313 313 312 312 313 313 313 313 313 313 313 313 312 313 314 314 316 318 318 326 331 327 324 327 331 330 328 331 329 325 328 329 328 327 328 329 329 329 328 327 327 327 326 324 322 323 323 323 322 321 320 319 317 316
315 314 315 316 316 316 314 311 312 314 314 312 314 315 317 319 318 316 315 315 315 315 315 316 316 316 316 317 316 317 317 317 317 316 316 316 315 315 315 315 314 314 313 313 313 313 312 313 313 313 313 313 313 312 313 312 312 312 311 313 315 319 329 328 323 327 332 331 329 326 326 326 326 330 329 326 326 327 329 330 330 329 328 328 327 326 323 322 323 323 323 322 321 320 319 317 316
314 314 316 316 315 316 315 311 311 314 313 312 314 316 317 318 318 315 315 315 314 314 315 316 316 316 316 316 317 317 317 317 317 317 317 316 316 316 315 315 315 314 314 313 313 313 313 313 313 313 313 312 313 313 313 313 313 313 312 312 313 318 328 328 324 328 331 330 327 322 324 326 329 330 325 322 324 327 328 329 330 329 328 328 327 326 323 322 323 323 322 321 321 321 319 317 316
315 315 316 316 316 316 315 312 310 311 312 312 314 315 317 318 316 314 314 315 314 313 315 316 316 317 317 317 317 317 317 317 317 317 317 317 316 316 316 315 315 314 314 313 313 313 313 313 313 312 313 312 312 313 313 313 313 313 312 312 312 314 320 326 329 331 329 329 326 322 327 330 329 326 323 321 323 326 327 327 329 329 328 327 326 326 323 321 322 322 320 320 321 321 318 317 315
316 315 316 316 315 314 314 314 311 309 311 314 314 314 316 317 317 315 314 314 313 313 315 316 317 317 317 317 317 317 317 318 318 319 318 317 317 316 316 315 315 315 314 314 313 314 313 313 313 312 312 312 312 312 313 313 313 313 313 311 312 316 319 322 329 332 330 330 326 321 326 329 328 325 323 323 323 326 327 327 329 329 328 327 326 325 323 321 322 322 320 320 321 319 318 316 315
315 315 315 315 314 313 314 315 313 310 312 314 314 314 315 316 317 317 316 314 313 313 314 316 316 317 318 318 318 318 318 319 319 319 319 318 317 317 316 316 315 315 315 314 314 313 314 313 313 313 312 312 312 312 313 313 313 313 312 312 317 324 325 322 324 327 327 326 323 321 325 329 329 325 324 326 325 324 327 328 328 328 328 327 325 324 323 322 323 321 320 321 320 319 318 316 315
315 316 316 315 314 314 315 314 311 310 312 314 315 315 316 316 317 317 317 315 313 313 314 314 316 317 318 318 319 318 319 319 319 320 319 319 318 317 317 316 316 315 315 315 314 314 314 313 313 313 313 312 312 312 312 313 313 313 312 314 321 324 325 322 320 319 321 323 323 325 328 329 328 325 324 328 326 324 326 326 325 326 326 326 325 324 322 322 322 320 320 321 320 318 317 315 315
316 317 316 316 316 314 315 314 310 309 313 316 316 316 316 316 316 317 317 316 314 313 314 314 315 317 317 318 318 318 318 319 319 319 319 319 319 318 317 317 316 315 315 315 315 315 314 314 313 313 313 312 312 312 312 313 313 313 312 313 317 318 320 320 317 317 322 326 327 328 328 327 325 322 323 326 325 325 326 324 323 323 323 325 325 324 323 322 320 319 320 321 319 318 316 315 314
315 315 315 316 316 315 314 312 310 309 312 316 315 314 315 316 316 317 317 316 315 315 315 315 316 316 317 317 317 318 318 318 318 318 318 318 318 318 318 317 317 316 316 316 315 315 314 314 314 313 313 312 312 311 311 313 312 313 313 312 315 318 321 323 319 318 325 328 325 325 326 325 322 320 322 324 323 323 325 324 323 322 321 321 323 324 323 321 319 318 320 321 319 317 317 315 312
315 315 316 315 316 315 313 311 310 310 312 315 315 314 315 316 316 317 317 317 316 316 316 316 316 316 316 317 317 317 318 317 318 318 318 318 318 318 318 318 317 317 316 316 315 315 315 315 314 313 313 313 312 311 311 312 312 313 313 314 317 321 324 325 321 319 322 324 321 322 326 325 321 321 322 322 320 322 325 324 323 324 322 320 322 323 322 321 321 320 320 320 319 317 317 314 309
315 316 315 315 317 316 312 312 311 310 311 313 314 313 315 316 316 317 318 317 316 316 315 315 315 316 316 317 317 317 317 317 317 317 317 318 317 317 317 317 317 316 316 316 315 315 315 315 314 314 314 313 312 311 311 311 312 313 313 315 320 324 324 322 322 321 321 322 320 320 325 325 323 323 322 321 322 324 325 323 322 325 325 322 323 322 321 322 322 321 321 320 319 317 314 311 307
316 316 316 316 317 316 313 313 312 311 311 311 313 315 316 318 317 318 318 316 314 314 314 314 315 316 316 316 317 317 317 317 317 317 317 317 317 317 317 317 316 316 316 316 316 315 315 315 315 314 314 313 312 311 311 311 312 312 312 315 318 321 321 320 323 323 322 323 323 322 324 325 324 323 322 321 324 325 324 322 321 323 324 323 322 320 320 320 320 321 321 320 320 316 310 306 306
316 316 316 315 315 315 314 314 314 314 315 312 313 314 315 317 316 317 318 316 316 316 315 316 316 316 316 316 317 316 317 317 317 317 317 317 317 317 317 317 317 317 316 316 315 315 315 315 314 314 314 313 312 311 311 311 311 312 312 313 315 316 317 320 321 321 322 324 325 325 324 324 323 322 321 320 322 324 323 323 322 323 323 321 319 317 318 320 321 321 321 320 317 312 306 304 304
314 316 315 314 315 315 315 316 315 315 315 314 313 314 315 316 316 317 318 317 317 317 317 317 317 316 316 316 316 316 316 316 317 316 317 317 317 318 318 318 318 318 317 316 315 314 314 314 313 314 313 313 312 311 310 310 311 312 312 312 313 314 317 320 319 319 321 324 325 325 324 324 322 321 321 319 320 322 323 323 323 322 321 318 317 317 318 321 321 321 320 316 311 306 304 302 302
315 316 314 313 313 315 315 316 316 316 316 314 314 316 315 316 317 317 317 316 316 317 317 318 318 317 316 316 316 316 316 316 316 317 317 318 318 318 318 318 317 317 316 315 315 314 314 313 313 313 312 312 311 311 310 310 311 311 312 313 314 315 319 321 321 320 320 321 323 323 322 323 323 321 320 319 319 320 322 322 320 320 319 317 317 319 320 321 320 319 317 310 304 303 302 301 301
316 312 311 312 314 315 315 316 316 315 315 316 316 315 315 316 317 316 315 316 316 317 317 318 319 318 316 316 316 316 317 317 317 318 318 318 319 319 319 318 318 317 316 316 315 314 313 312 312 312 312 311 311 310 310 310 311 311 312 314 314 316 320 323 322 321 320 321 320 320 321 322 321 320 319 319 319 320 321 319 318 319 319 318 319 321 321 320 319 316 310 302 300 301 301 300 300
313 309 311 312 313 313 314 316 316 315 315 317 318 315 314 314 317 316 314 315 316 317 317 318 318 317 316 316 317 318 318 318 318 319 318 319 319 319 319 319 318 318 317 316 315 314 313 312 312 311 311 311 310 310 309 309 310 310 312 314 313 316 321 323 322 321 320 321 320 319 322 321 319 319 318 318 318 319 319 317 316 317 319 319 320 320 319 318 315 309 303 299 299 300 299 299 299
311 313 315 315 314 314 315 315 315 316 316 317 317 316 314 312 315 318 316 315 317 317 317 318 317 316 316 317 317 318 319 318 319 319 318 319 319 319 319 318 318 318 318 317 316 315 314 312 311 311 311 310 310 310 309 309 310 310 311 312 314 316 319 320 320 318 318 320 320 320 322 320 318 317 317 316 316 317 318 317 317 318 319 319 319 319 317 313 307 302 299 299 299 299 298 298 298
312 317 317 316 314 314 315 315 316 317 316 315 314 315 315 312 313 317 316 314 315 316 316 317 318 318 317 316 317 317 318 318 318 319 318 318 318 318 318 318 318 318 318 318 317 316 314 313 312 311 310 310 310 310 309 309 310 310 310 311 315 318 319 319 317 316 317 318 319 321 320 319 317 316 315 316 317 317 317 318 319 319 319 318 318 316 312 305 301 299 298 298 299 298 297 297 297
314 317 316 315 314 314 315 316 316 316 315 312 311 313 315 314 314 316 316 315 315 315 316 316 317 318 316 316 316 316 316 317 317 318 318 318 318 317 317 317 317 317 317 317 317 316 315 314 312 311 310 310 310 310 309 309 309 310 311 311 313 316 317 317 315 315 318 319 320 321 320 318 318 315 315 316 317 316 317 318 318 318 317 317 315 312 305 300 299 298 297 297 298 297 297 297 297
315 317 316 314 314 314 316 315 313 313 313 309 308 313 315 315 316 316 316 316 317 316 316 315 315 315 315 315 315 315 316 316 317 317 317 318 318 317 317 317 317 317 317 316 316 316 315 314 313 312 311 310 311 310 309 310 310 310 311 312 312 312 312 314 315 316 319 320 320 320 319 318 317 316 314 314 315 316 317 318 318 316 316 315 311 305 300 298 297 297 297 297 297 297 297 296 296
315 317 316 315 315 315 315 314 312 312 313 309 308 313 317 316 316 316 315 314 314 314 314 314 314 314 315 315 315 315 316 316 317 317 317 317 317 317 317 317 317 317 316 316 316 315 315 314 313 312 311 310 311 310 309 309 310 310 310 311 312 311 311 314 316 318 319 320 319 318 318 318 317 315 314 313 314 316 317 318 317 315 314 311 305 300 298 297 296 296 296 296 296 296 296 296 296
315 315 315 315 315 313 312 311 311 311 313 312 310 313 316 316 315 315 315 314 314 314 313 313 314 315 315 315 317 316 316 317 317 317 318 317 318 318 317 317 316 316 316 316 316 315 315 314 313 312 311 310 311 310 310 309 309 310 310 310 310 311 310 313 316 318 319 319 318 317 318 317 316 314 314 313 314 315 316 317 316 314 312 307 301 297 297 296 296 296 296 296 296 296 296 296 295
314 313 314 315 315 314 313 311 309 309 312 314 313 313 314 313 314 314 314 316 317 315 315 314 315 316 315 316 317 317 316 318 318 318 318 318 318 318 317 317 316 316 316 316 315 315 314 313 312 311 311 310 310 310 310 309 309 310 309 309 309 310 311 312 315 317 318 317 317 317 317 316 315 314 315 314 314 314 315 316 315 313 309 303 298 297 296 295 295 295 295 296 296 295 295 295 295
314 314 315 314 313 314 313 313 312 312 314 314 314 314 313 313 315 315 314 315 316 315 316 316 316 316 315 317 317 317 318 318 318 318 319 318 318 318 317 317 317 317 316 316 315 314 314 313 312 312 311 310 310 311 310 309 309 310 309 309 310 310 310 312 314 315 316 315 316 317 316 315 314 314 314 314 314 314 315 315 314 312 307 300 297 296 295 295 295 295 295 295 295 295 295 294 294
312 313 314 314 314 315 314 313 314 315 315 315 315 314 313 313 315 315 315 315 315 316 316 316 316 316 316 316 317 316 317 318 318 318 318 318 318 318 318 318 318 317 317 316 316 315 314 314 313 312 312 311 310 310 310 309 309 310 310 310 310 310 310 312 313 313 314 315 317 316 315 314 313 313 314 314 313 314 314 314 313 311 304 298 296 295 295 295 294 295 295 295 294 294 294 294 294
310 311 312 312 314 315 315 314 313 314 315 315 315 314 313 315 316 314 314 315 315 316 318 319 317 317 317 317 317 316 317 317 318 318 318 318 318 318 318 318 318 318 317 317 317 316 315 314 314 313 312 311 310 310 310 309 309 310 310 310 311 310 310 311 313 313 314 316 317 315 314 313 312 313 314 314 313 312 313 313 312 309 302 297 296 295 294 294 294 294 294 294 294 294 293 293 293
312 313 313 313 312 313 313 313 312 313 314 313 314 314 313 314 317 315 314 315 316 317 319 320 319 317 317 317 316 317 317 318 319 318 318 318 318 318 318 318 318 318 317 317 317 317 316 315 315 314 312 312 311 310 310 310 309 309 310 311 311 310 310 311 314 314 314 316 316 315 314 312 312 313 314 314 313 312 313 313 311 307 300 296 295 295 294 294 294 294 294 294 293 293 293 292 292
314 314 314 314 314 313 314 315 313 311 313 313 313 314 314 316 318 317 314 316 317 317 318 319 319 317 317 317 316 317 317 318 318 318 318 318 318 318 318 318 318 317 317 317 317 317 317 316 315 314 313 312 312 311 311 310 309 309 310 311 311 310 309 311 314 315 315 315 314 313 313 312 312 313 313 314 313 313 312 311 309 305 298 295 295 294 294 294 294 294 293 293 293 293 292 292 292
Wind_Speed
5 3 3 5 5 5 4 1 1 2 1 0 2 1 3 1 3 2 5 4 2 2 3 1 7 9 4 1 1 2 2 1 1 1 1 9 18 18 16 16 16 16 15 14 15 14 13 13 14 14 13 12 10 10 11 12 13 13 12 11 11 10 9 9 9 10 11 11 12 14 15 16 15 15 14 15 16 15 15 16 16 16 15 15 15 16 16 16 17 17 17 17 17 17 16 14 14
5 4 5 5 4 3 2 1 1 1 1 1 2 0 3 2 2 4 5 3 1 4 5 4 9 9 2 1 1 1 2 2 1 2 6 18 21 18 17 17 17 17 16 15 14 14 13 12 13 14 13 12 11 10 9 10 12 13 12 12 11 10 9 9 9 10 11 11 12 14 14 15 15 15 15 15 16 15 15 16 16 16 16 16 16 17 17 17 17 18 18 17 18 18 17 16 15
5 4 6 4 3 3 2 0 1 0 1 1 2 3 4 4 5 4 3 3 5 9 9 8 9 6 2 2 3 2 1 2 4 8 13 21 17 17 19 17 18 17 16 15 14 14 13 13 13 13 13 12 11 10 9 9 10 11 11 11 10 9 9 9 9 10 11 12 13 13 13 13 14 15 15 15 15 15 15 15 16 16 16 17 17 17 18 18 18 19 18 17 17 18 17 16 17
5 5 6 4 2 3 2 0 1 1 1 1 1 5 5 4 5 5 6 8 12 12 8 7 6 5 5 3 2 2 1 3 8 14 16 19 16 19 20 18 19 18 17 15 14 14 13 13 13 12 12 12 10 9 8 8 9 10 10 10 10 9 9 8 9 10 11 11 12 12 11 12 13 14 15 15 15 15 14 14 15 16 17 17 17 18 18 19 19 19 18 17 17 17 17 17 17
6 6 6 3 2 2 1 0 1 2 1 1 1 5 5 4 6 8 10 10 12 8 4 5 2 4 6 4 2 1 2 5 12 17 17 19 19 21 21 19 20 19 17 15 14 14 14 14 13 12 12 12 10 8 8 8 9 11 10 10 10 8 7 8 9 10 10 11 11 11 10 10 12 13 14 14 14 14 14 13 14 15 16 17 18 18 19 19 19 19 18 17 17 17 17 17 17
7 6 5 3 2 2 1 1 1 1 3 2 1 5 6 5 8 11 11 8 6 2 3 4 2 4 3 3 4 2 6 7 11 17 19 19 20 21 21 20 20 20 17 15 15 14 14 14 13 12 12 11 10 8 8 8 9 11 10 9 9 7 7 8 9 10 10 10 10 10 9 9 11 12 13 13 13 12 13 12 13 14 15 16 18 18 18 18 19 19 18 17 17 16 17 18 18
9 6 3 3 4 2 1 0 0 1 2 2 2 4 6 7 9 13 11 7 4 3 4 5 4 3 2 3 4 6 10 10 13 17 19 19 19 20 21 20 20 19 17 16 15 15 15 14 14 13 12 11 10 9 7 8 9 10 9 8 8 7 7 7 8 9 9 9 9 8 8 8 9 10 11 12 12 11 11 11 12 13 14 15 17 18 18 18 18 18 17 16 16 17 18 18 18
9 5 2 2 2 2 1 1 1 1 2 1 2 1 4 7 10 12 10 6 3 4 5 5 7 3 2 5 2 8 10 11 15 16 19 19 19 19 19 20 20 19 16 16 15 15 15 14 14 13 12 11 10 10 8 8 8 9 8 7 7 7 7 7 7 8 9 9 8 7 7 7 8 8 10 11 12 11 10 10 11 11 13 14 16 17 17 17 17 17 17 16 17 18 18 18 17
7 4 3 2 1 1 1 0 1 1 0 1 2 2 3 8 10 9 9 5 2 4 4 7 8 2 4 6 2 8 10 12 14 15 18 18 18 18 18 20 19 19 15 16 16 15 15 14 13 13 12 12 10 10 9 8 8 8 8 8 7 7 7 7 7 7 8 8 7 6 6 6 7 8 9 10 11 11 10 10 10 10 12 13 14 15 16 17 17 17 17 17 17 17 17 17 17
4 3 3 1 1 1 1 1 1 1 1 1 2 3 6 10 9 7 8 5 3 4 5 9 7 2 5 5 3 8 11 13 14 14 17 16 18 19 19 19 19 18 15 15 15 15 15 14 15 13 12 12 11 11 10 9 9 9 8 8 8 7 7 7 7 7 7 7 6 5 5 6 6 8 9 10 11 11 11 11 11 11 12 12 14 15 16 17 17 17 17 17 16 16 16 16 16
3 3 3 2 2 2 2 2 2 1 1 1 2 4 8 11 8 5 5 3 5 4 6 10 5 3 6 3 4 9 13 14 14 14 15 16 17 19 21 20 19 19 16 15 15 16 15 15 16 14 13 12 12 12 11 11 10 10 9 8 8 8 7 7 7 6 6 6 6 5 5 5 6 7 8 9 11 11 11 12 12 12 12 13 14 15 16 16 17 17 16 16 16 16 16 15 15
2 2 2 3 2 1 1 1 2 2 1 2 4 7 9 12 8 6 7 4 6 6 7 10 4 5 6 2 6 11 13 14 14 15 14 15 16 18 21 20 21 20 17 16 16 17 16 15 16 14 13 13 13 12 12 11 10 9 10 9 8 8 7 7 7 6 6 6 6 5 4 4 5 7 8 8 10 11 12 12 13 13 13 14 14 15 15 16 16 17 16 16 16 15 15 15 15
1 2 3 2 0 1 0 0 1 1 2 4 4 8 11 11 8 6 6 4 6 6 7 12 7 4 4 2 7 12 14 15 15 15 14 14 15 17 19 20 22 22 19 17 17 18 17 17 17 15 14 13 13 13 12 11 9 9 10 9 9 9 8 7 7 5 5 5 6 5 4 3 4 6 7 7 9 10 11 12 13 13 13 14 14 14 15 15 16 17 16 16 16 16 15 15 15
3 3 1 2 1 0 1 0 2 3 3 4 4 10 13 8 7 6 5 5 7 6 5 11 10 3 4 3 6 14 16 16 17 15 14 14 14 16 17 19 21 22 21 20 19 19 19 18 18 16 14 14 14 13 12 12 11 11 11 10 10 10 9 8 7 6 5 5 5 4 4 3 3 4 5 6 7 9 10 11 12 13 13 13 14 14 15 16 16 16 16 16 16 15 15 14 14
6 6 2 2 2 1 2 1 1 4 3 6 6 11 12 7 7 7 6 6 5 8 5 7 11 4 3 5 5 14 18 17 18 16 16 15 15 17 17 18 21 22 22 22 21 20 20 19 18 17 16 15 14 13 13 13 12 13 13 11 11 11 10 9 8 7 6 5 5 4 4 4 3 3 3 4 6 7 8 10 11 12 12 13 13 13 14 15 15 15 15 15 14 14 14 13 13
8 6 2 2 2 2 3 1 1 3 2 5 8 11 9 6 7 7 8 7 4 9 8 6 12 6 2 4 4 10 16 18 19 18 18 17 17 18 18 18 20 22 23 23 22 21 21 20 20 19 16 16 16 15 14 14 13 14 14 12 13 12 12 11 9 8 7 6 6 5 4 4 4 3 3 4 5 6 7 8 10 11 12 12 12 12 12 13 14 14 14 13 13 13 12 12 13
8 4 2 3 3 3 4 5 4 2 2 5 9 11 9 5 7 8 8 9 6 7 10 8 11 11 6 6 5 7 13 18 19 20 20 20 20 20 20 20 20 22 23 24 24 23 22 21 21 20 18 18 18 16 14 15 15 15 15 14 14 13 13 12 10 9 8 7 7 6 5 5 4 4 4 4 5 5 7 8 8 10 10 11 11 11 11 12 12 12 12 12 12 12 11 12 12
5 2 3 3 3 3 5 7 5 0 1 7 10 12 9 5 7 8 6 8 9 8 10 12 11 12 12 9 6 6 9 15 19 21 22 22 22 22 22 22 22 22 23 25 26 25 24 23 23 22 21 20 18 17 15 16 16 16 15 16 16 14 14 13 12 11 10 8 8 7 6 5 6 5 5 5 5 5 6 7 8 9 9 9 10 9 10 10 10 10 11 11 11 11 10 11 11
2 1 3 4 2 2 3 6 6 0 1 6 10 12 10 5 7 9 7 6 7 8 9 12 13 13 15 13 11 9 8 11 17 21 22 23 24 23 23 23 24 23 23 25 26 26 25 25 24 23 22 20 17 18 17 17 17 16 16 17 17 16 16 15 13 12 11 10 9 9 8 7 7 7 6 5 5 5 6 7 7 8 8 7 8 8 8 8 9 9 9 9 9 9 9 10 10
1 1 4 2 2 1 2 6 6 0 1 5 9 11 9 4 8 9 7 4 5 10 10 10 13 15 16 16 14 13 11 11 14 19 22 23 24 24 23 23 24 24 23 23 24 25 25 23 23 23 22 20 18 17 17 18 19 18 18 19 18 17 17 16 15 14 13 12 12 11 10 9 9 9 8 7 7 7 7 8 8 8 8 7 6 7 7 6 6 7 7 8 8 7 7 9 8
2 2 2 1 2 1 3 7 7 1 1 4 7 9 8 6 10 10 6 5 7 12 14 13 13 14 15 15 15 15 14 13 14 17 20 22 23 24 24 23 23 23 21 21 21 23 23 22 22 24 23 22 20 18 18 19 20 19 19 21 20 19 19 18 17 16 15 14 14 13 12 10 10 10 9 8 9 9 9 9 10 9 8 8 6 5 5 5 5 5 6 6 6 6 5 7 7
3 0 2 3 2 1 3 7 8 5 1 4 7 7 7 7 10 11 9 8 7 7 11 13 12 12 13 13 13 14 15 15 15 17 19 21 22 23 23 23 22 21 19 18 20 22 23 22 22 24 24 24 23 21 20 20 22 21 19 20 21 20 20 20 19 18 17 16 16 14 13 12 11 11 10 10 10 11 11 11 12 11 10 9 7 5 5 5 6 6 4 4 4 4 4 6 7
2 1 1 2 2 3 2 5 6 7 4 4 6 5 6 7 7 10 15 16 11 8 8 8 9 11 12 13 14 15 14 14 15 15 17 18 20 22 22 22 21 21 19 18 19 20 22 23 22 22 23 23 24 26 25 24 23 20 19 20 20 20 21 21 19 19 19 18 17 16 15 14 13 12 12 12 11 12 13 12 13 13 12 10 9 7 5 6 6 7 5 2 0 1 1 4 6
1 3 3 3 3 2 1 2 4 7 6 4 6 6 6 7 6 6 16 24 21 17 15 11 10 9 9 11 13 15 15 14 13 14 15 17 18 20 22 22 21 21 20 19 19 19 19 21 22 23 23 23 25 29 30 28 23 20 21 23 21 20 22 22 20 20 21 20 19 18 16 16 15 14 13 13 12 13 15 14 14 14 14 12 10 8 6 5 5 5 4 1 1 1 2 2 3
1 4 5 3 3 1 2 3 4 5 5 5 6 6 4 6 6 7 18 25 22 21 20 18 17 15 14 13 12 13 14 15 14 14 16 17 19 20 22 22 21 21 21 20 20 19 18 19 21 23 23 23 25 29 32 30 24 22 26 27 24 22 23 23 23 21 21 20 19 19 18 17 17 15 14 14 14 15 16 15 15 15 15 13 11 9 7 6 6 4 2 1 2 1 2 1 2
2 4 5 4 3 3 4 4 4 4 4 5 6 4 2 4 5 11 21 25 22 22 22 21 21 20 19 18 17 16 16 16 16 17 17 18 19 21 22 23 23 23 22 22 21 20 19 19 19 20 21 22 24 26 29 30 28 27 28 28 28 26 22 22 25 23 22 21 20 20 19 18 18 17 15 15 15 16 17 17 16 16 16 13 11 8 7 6 6 5 3 3 2 1 2 2 2
6 7 8 5 4 4 3 3 4 3 4 5 5 3 2 2 2 8 12 13 15 17 19 21 22 22 22 20 20 20 20 20 19 19 20 20 21 22 22 23 24 24 23 23 22 21 20 19 20 20 21 21 21 23 24 27 31 31 31 30 31 28 23 24 25 22 22 23 22 21 20 19 19 18 18 16 16 16 17 18 18 18 16 13 11 8 6 8 9 7 5 3 1 1 3 3 1
8 8 7 6 4 3 1 1 2 2 2 3 3 3 3 2 3 11 10 8 9 9 12 16 19 20 21 21 21 22 22 22 22 22 22 22 22 22 22 22 22 23 23 22 21 21 20 20 20 20 20 21 21 22 22 24 29 32 32 32 32 29 26 28 27 23 22 24 23 21 22 22 20 21 20 18 17 16 17 20 21 20 17 14 13 10 8 10 12 9 6 3 1 1 4 3 2
7 6 3 3 2 2 1 1 2 2 2 2 1 5 7 8 12 17 14 13 13 12 14 15 16 17 18 20 20 21 22 22 23 24 24 23 23 22 22 21 21 22 22 22 21 21 21 21 21 20 20 21 21 21 22 23 26 29 31 31 31 29 28 29 28 25 23 23 23 23 24 23 21 21 20 18 17 16 17 20 23 22 19 16 15 13 10 11 13 11 8 4 1 3 5 3 2
7 3 1 1 2 3 2 2 2 3 3 4 3 5 6 10 16 17 14 16 15 16 18 18 19 19 19 19 20 21 22 22 23 24 24 23 23 23 23 23 22 22 22 22 22 22 22 22 22 22 21 21 21 22 22 23 25 28 29 29 29 28 29 29 28 27 27 26 25 25 25 22 21 22 21 18 17 18 18 21 25 25 22 19 17 15 10 10 13 13 9 6 5 5 6 4 3
3 1 1 0 3 2 4 2 1 3 4 6 4 6 6 5 7 9 13 16 15 17 19 19 21 20 21 20 20 21 20 21 22 22 23 23 23 23 24 24 23 24 24 23 23 23 23 23 23 23 23 22 23 23 23 23 24 26 26 27 28 27 29 28 26 27 28 27 24 25 27 25 24 23 19 16 17 20 21 24 29 28 25 21 19 17 11 10 15 15 11 9 8 7 7 6 5
2 2 2 1 3 1 3 2 0 2 2 6 6 5 7 6 3 3 7 9 10 15 18 18 19 18 19 20 20 21 20 20 20 21 22 22 23 24 24 25 24 25 25 24 24 24 24 24 24 25 25 24 25 25 24 24 24 25 25 27 27 28 30 28 25 26 28 27 25 26 29 29 26 22 19 18 18 21 22 25 30 32 29 24 21 18 12 11 16 17 13 10 9 9 9 8 8
1 2 2 2 3 2 1 2 1 2 0 5 7 4 5 3 1 2 3 3 5 11 15 17 18 17 17 18 19 19 19 19 19 20 20 21 22 23 24 25 25 26 26 26 26 25 25 25 25 26 26 26 26 25 25 25 25 24 25 26 26 26 29 29 27 28 29 29 26 25 27 27 24 21 20 20 19 21 23 22 25 32 31 25 23 20 15 12 15 17 13 12 12 10 10 11 10
2 1 2 1 2 2 2 2 2 1 2 5 7 7 10 8 4 6 8 10 10 12 18 20 20 21 20 20 20 21 21 22 22 21 20 20 20 21 23 25 25 26 27 28 28 28 27 27 27 27 28 28 27 26 25 25 25 24 25 25 24 23 25 28 28 29 29 28 26 25 27 27 25 23 22 22 21 21 25 22 20 26 27 25 23 20 17 14 17 18 14 15 15 10 10 12 11
3 3 3 1 2 3 4 1 2 1 3 6 7 9 14 15 13 16 18 19 16 17 22 25 26 28 28 28 28 28 28 29 28 26 24 22 21 22 23 24 26 27 28 29 30 30 29 29 29 29 29 29 28 26 26 26 25 25 25 24 24 24 26 29 30 32 30 29 29 27 27 26 26 25 23 24 25 23 23 20 19 20 22 24 22 19 17 17 20 18 15 17 16 11 11 12 12
3 3 2 1 3 4 3 1 1 0 4 7 10 12 14 14 13 16 18 18 18 19 22 25 29 32 32 33 33 33 33 33 32 30 27 25 24 24 24 25 26 27 29 30 31 31 31 30 30 30 29 29 29 28 27 27 26 26 26 25 26 28 30 29 29 31 30 30 31 28 26 24 24 24 22 22 24 24 22 19 19 21 23 25 23 20 18 18 22 19 18 19 16 15 15 14 14
5 3 1 2 3 3 2 1 2 1 5 7 7 11 15 14 12 15 18 16 17 19 20 25 31 34 36 36 36 36 36 35 33 32 31 29 28 27 27 27 28 29 30 31 32 32 32 32 31 31 30 30 30 29 28 27 27 27 27 27 28 29 29 26 25 27 28 26 25 24 25 25 25 24 24 24 23 23 23 22 21 23 25 27 24 21 20 20 22 20 21 21 18 19 19 18 17
3 2 1 2 4 4 1 2 1 1 3 5 3 8 16 15 13 15 16 14 16 19 20 22 26 31 35 38 39 39 38 37 34 33 33 32 31 29 29 29 30 31 31 32 33 33 33 33 32 31 30 30 30 29 28 28 28 27 25 25 26 26 27 25 21 24 28 24 21 22 24 26 26 24 25 26 24 24 26 24 22 23 25 25 23 23 22 22 22 21 24 24 21 21 21 21 20
2 1 1 3 3 2 0 2 2 1 3 5 3 7 14 16 15 17 18 18 21 24 24 23 24 27 33 37 39 40 39 39 36 35 35 34 33 32 32 32 32 32 32 33 34 34 34 33 32 31 30 30 30 30 29 29 28 27 25 23 22 23 25 25 22 24 29 27 23 25 27 27 26 25 25 26 27 26 27 25 23 26 28 26 26 26 24 23 24 25 26 25 24 24 23 22 21
2 2 3 2 0 1 2 1 2 2 2 5 6 7 12 15 14 16 19 20 21 24 26 27 29 33 37 39 39 38 38 39 36 33 33 32 31 31 31 31 31 32 33 34 35 35 35 33 33 32 31 30 30 30 30 30 29 27 26 23 23 25 26 26 26 26 28 28 26 27 29 28 27 28 25 24 26 25 26 24 22 26 30 28 28 28 25 25 27 27 27 26 26 26 25 23 23
3 4 6 4 2 2 2 2 1 3 2 2 6 8 8 8 9 11 10 8 12 17 19 23 28 31 33 33 33 33 33 33 31 29 29 29 28 27 27 26 27 29 31 33 34 34 34 34 34 33 32 31 31 31 31 31 30 29 27 26 27 29 29 28 30 31 30 31 30 30 31 28 25 26 23 21 25 27 25 23 23 26 29 27 27 27 27 27 28 28 27 26 25 25 23 23 24
3 5 8 9 4 1 1 2 3 3 2 1 3 6 4 2 6 10 6 4 8 9 10 17 23 25 28 31 33 32 31 31 30 29 28 27 27 26 26 25 24 25 26 28 30 32 33 34 35 35 34 33 31 31 31 31 31 30 29 29 29 30 31 30 31 32 31 31 32 32 31 27 23 23 21 21 26 29 25 24 27 30 29 27 26 26 27 28 29 29 27 25 24 24 21 21 24
2 2 5 7 2 1 1 1 2 4 2 1 1 5 6 4 9 14 9 10 13 8 9 17 22 26 31 34 35 33 30 30 29 27 25 24 24 24 24 24 23 22 22 24 27 29 31 33 34 35 34 33 32 31 32 32 32 31 30 29 28 29 30 30 29 29 28 28 31 33 29 25 23 22 22 24 29 31 27 26 29 29 28 27 27 28 29 29 29 27 25 24 23 24 22 20 22
1 1 1 4 4 4 4 2 3 3 3 2 3 3 7 7 9 10 8 10 14 12 12 14 17 23 27 26 26 24 23 23 22 21 19 18 18 18 18 19 19 19 20 22 24 26 29 31 33 34 33 33 32 32 32 32 32 31 30 30 28 28 29 29 28 27 27 27 30 31 29 27 26 25 25 26 30 33 31 28 28 29 28 29 29 30 30 28 28 26 25 25 24 24 22 20 20
1 1 1 3 3 3 3 2 2 1 4 4 4 4 6 8 5 2 1 6 10 13 14 11 10 13 15 13 12 11 11 12 13 12 10 8 7 8 10 12 14 16 18 21 22 24 26 29 31 32 33 33 33 32 32 32 32 31 30 30 29 28 28 30 29 28 28 29 30 30 30 28 27 25 26 27 30 33 31 29 29 30 30 30 30 29 29 28 28 26 26 26 25 24 22 20 19
3 6 5 6 5 4 3 0 1 1 5 5 6 7 5 9 5 6 3 4 8 11 10 6 7 8 8 6 4 4 4 5 6 6 5 3 2 5 7 8 10 13 16 19 21 23 25 27 29 31 32 33 32 31 31 32 32 31 31 31 30 28 30 31 31 30 30 31 30 30 30 28 25 25 27 29 31 32 31 29 30 31 31 31 30 29 29 29 28 27 28 27 25 24 22 20 19
10 8 5 7 4 3 2 1 1 1 6 3 8 10 5 8 5 7 5 2 4 7 7 5 5 5 6 4 2 2 3 4 5 5 4 3 5 7 8 9 9 11 13 16 18 21 23 26 28 30 31 31 30 30 31 32 32 32 32 32 31 31 32 33 33 32 32 32 31 31 31 27 25 26 28 29 32 33 31 30 31 32 31 30 29 29 30 29 28 28 28 27 24 23 21 20 19
6 4 4 4 2 1 1 1 1 4 6 1 3 4 5 8 6 4 2 2 3 5 6 7 5 4 9 9 6 6 5 6 7 7 7 8 10 12 11 12 12 12 13 14 16 18 21 24 27 29 30 31 30 30 31 32 32 33 32 32 33 34 35 33 31 31 31 31 31 32 30 26 25 25 26 29 32 31 31 32 33 33 31 29 29 30 31 30 29 29 28 27 25 23 22 20 20
2 3 6 4 2 2 3 3 3 5 4 2 2 1 4 11 11 6 9 12 12 10 12 15 13 13 19 17 15 14 12 12 12 12 13 14 16 15 13 14 14 15 15 15 16 18 20 22 25 28 30 31 29 29 31 32 33 33 32 32 34 36 36 33 31 30 30 30 31 32 28 26 27 25 26 29 31 31 32 34 34 33 31 30 30 31 31 30 29 29 28 27 25 23 22 21 20
7 7 8 6 4 4 5 4 1 4 2 2 2 1 4 10 10 9 14 16 14 11 16 23 24 26 30 25 24 24 22 22 21 19 19 19 18 14 12 12 13 14 15 16 17 17 18 20 23 25 28 30 29 28 31 33 34 34 33 34 34 34 34 33 31 30 30 31 31 28 27 28 28 25 25 28 30 32 34 33 32 32 30 30 31 31 30 29 29 29 28 26 25 24 23 22 21
8 4 3 5 5 5 5 3 2 3 1 2 1 2 6 6 2 3 9 12 15 15 15 19 24 30 32 29 30 32 29 26 24 22 20 17 14 12 11 11 12 13 14 14 15 16 17 19 21 23 27 29 29 28 30 33 35 34 33 33 33 33 32 33 33 31 31 31 29 26 27 29 28 24 23 26 30 33 33 32 32 30 30 31 31 31 30 29 29 29 29 27 26 25 24 24 23
3 1 1 5 4 3 1 1 1 1 1 2 3 4 6 5 6 8 10 10 12 13 12 14 20 25 26 27 30 31 27 21 19 17 15 12 11 10 11 11 11 12 11 13 14 14 16 17 19 21 24 28 29 28 29 32 34 33 32 32 32 32 32 33 33 33 33 33 29 27 29 29 25 22 22 25 28 31 31 31 31 30 31 32 32 31 30 30 30 30 30 29 28 27 26 25 24
4 3 5 3 1 2 2 1 2 2 4 4 4 6 7 6 10 10 12 13 10 8 8 12 18 21 20 24 30 29 20 13 11 10 9 9 9 9 9 8 8 8 9 10 11 12 13 15 17 20 22 26 29 27 27 31 33 32 32 32 31 32 32 33 33 34 34 33 31 29 28 26 23 22 24 26 27 30 32 31 31 31 33 33 32 32 31 30 31 31 30 30 29 28 27 26 26
3 5 5 2 2 1 2 4 1 3 7 4 4 8 8 6 6 2 3 9 10 10 10 12 17 21 21 29 34 26 16 9 7 8 10 10 8 6 4 3 3 4 5 7 8 9 11 14 16 18 20 24 26 26 25 29 32 32 31 31 30 30 31 32 32 32 32 31 30 30 27 24 23 23 26 28 29 30 32 32 31 33 34 35 33 32 32 32 32 31 31 30 30 29 28 28 27
1 1 2 2 2 4 4 4 4 5 6 3 4 7 6 8 8 4 5 8 9 11 11 10 14 17 22 33 34 25 19 14 9 10 12 10 9 8 6 4 2 1 2 4 6 8 10 12 14 16 19 21 24 24 25 27 31 33 31 30 30 29 29 30 29 30 30 30 30 30 25 23 23 25 28 30 30 32 33 32 32 34 36 36 34 33 32 33 32 32 32 31 31 30 29 28 26
3 1 2 0 3 3 3 3 2 5 6 4 4 4 5 8 7 6 11 12 11 10 9 8 11 15 23 31 31 27 22 15 12 13 13 12 12 9 7 5 4 3 2 3 4 6 8 10 12 15 18 20 23 24 25 27 30 32 32 31 30 29 28 29 28 29 30 31 32 29 24 22 24 26 30 31 30 31 33 32 33 36 38 37 35 34 33 33 33 32 32 32 31 30 29 27 26
5 6 6 4 2 0 2 2 1 2 4 4 4 5 8 6 4 7 11 11 10 11 8 6 10 18 24 25 26 22 14 13 16 15 15 14 12 9 7 5 3 3 3 3 4 5 7 9 11 14 17 20 23 24 25 25 28 31 32 31 30 28 28 29 30 31 32 32 32 29 24 23 25 28 31 32 30 30 32 33 34 37 39 38 36 35 34 34 33 33 33 32 31 30 28 26 25
7 8 9 10 8 5 4 5 2 1 3 2 2 6 9 5 3 6 9 7 7 9 8 7 13 22 21 17 17 12 12 18 19 17 16 14 11 9 6 4 3 3 3 5 7 7 8 9 11 13 16 19 22 24 24 24 25 29 32 32 30 29 29 29 32 34 34 32 31 29 27 26 28 29 31 32 32 31 31 32 35 39 40 38 36 35 35 34 34 34 33 32 31 30 27 25 24
Wind_Direction
207 204 158 149 141 141 118 198 199 69 287 38 110 165 141 120 344 199 164 158 174 165 214 220 158 166 167 338 325 22 32 223 18 326 56 137 159 163 161 160 158 160 158 156 151 146 147 141 137 137 134 133 131 124 126 138 140 135 131 128 124 121 118 108 97 85 77 71 71 74 71 72 75 78 80 80 78 79 83 86 88 90 92 93 94 95 96 96 96 97 95 95 100 103 102 98 95
196 182 148 142 139 167 125 332 281 95 260 135 136 115 110 148 223 182 161 159 69 133 170 155 157 173 215 300 187 216 168 178 92 93 136 149 156 160 162 161 159 162 160 157 156 151 149 145 141 138 135 136 133 131 129 135 143 143 138 134 130 125 118 105 95 87 80 76 77 78 77 78 77 77 78 77 76 78 83 88 90 92 93 94 94 96 97 97 98 96 94 95 100 102 102 101 99
185 167 146 128 100 120 118 360 303 199 273 93 129 118 127 176 180 145 120 97 103 133 141 140 160 179 247 244 202 253 132 155 159 138 142 147 153 164 164 163 161 162 162 158 159 155 153 152 146 139 137 138 136 138 136 131 143 148 141 136 134 127 116 105 95 85 77 78 81 82 82 80 77 76 75 74 74 76 81 87 92 94 95 95 94 95 96 98 98 97 99 101 102 103 102 101 98
173 161 148 130 114 103 105 285 352 269 292 39 106 133 164 179 148 107 107 112 121 131 129 146 166 198 237 272 235 260 122 158 159 141 145 152 158 168 167 167 164 163 163 158 161 158 157 156 147 144 140 140 139 140 141 131 139 146 143 136 134 131 120 109 93 82 79 82 87 86 85 82 79 78 75 74 74 76 80 86 93 97 98 97 96 95 96 98 99 101 105 107 104 103 101 98 95
162 160 158 164 201 87 73 116 110 265 7 29 63 135 173 164 133 121 130 131 127 123 134 173 180 194 227 263 236 270 141 163 162 152 156 163 163 167 169 170 168 164 162 159 163 161 161 159 150 150 144 142 142 143 146 135 132 140 147 141 137 138 124 106 92 87 86 87 91 89 86 84 82 80 76 74 76 79 81 86 95 100 101 99 97 96 96 98 100 101 103 103 102 101 97 94 91
146 152 158 141 103 84 158 173 172 221 39 350 31 127 163 152 139 138 144 153 150 134 155 204 233 175 204 217 217 202 155 159 161 160 162 166 164 166 170 171 170 165 161 161 163 163 165 163 158 154 148 147 146 148 149 139 132 136 146 145 143 140 122 105 95 91 91 93 95 93 89 85 83 80 76 73 75 83 87 90 97 101 102 100 97 96 97 98 100 102 102 102 102 98 93 89 86
141 141 142 125 81 38 238 150 158 120 66 345 18 109 152 146 144 145 155 175 197 229 208 222 211 180 172 170 205 181 166 160 161 166 165 166 166 169 172 172 170 164 161 165 166 167 168 166 165 159 153 154 152 154 152 142 137 138 144 145 146 140 122 105 95 93 95 96 96 95 92 85 81 77 74 71 72 82 93 98 103 106 105 101 97 97 97 98 101 102 102 102 99 94 90 87 84
145 140 142 154 69 8 255 104 82 43 67 312 322 35 141 148 154 156 168 182 188 203 216 211 192 209 155 143 166 175 173 165 165 168 168 169 170 173 175 174 171 166 165 170 171 171 170 169 172 165 159 162 159 159 157 150 143 142 143 146 147 137 122 101 90 92 96 98 99 97 91 84 78 73 69 67 67 76 91 101 106 110 109 105 100 101 101 101 103 103 100 97 93 90 89 87 85
146 141 134 165 173 90 122 161 119 60 116 212 255 228 172 162 165 170 175 188 194 179 202 189 190 246 143 157 171 178 183 176 174 172 172 175 175 177 178 179 175 169 169 173 176 175 172 172 177 175 168 168 167 165 165 162 153 149 148 148 146 135 121 103 95 94 102 106 104 100 91 84 76 71 65 63 63 70 86 96 101 103 104 104 101 100 100 101 102 100 99 96 93 91 90 88 86
139 128 124 131 196 187 187 194 138 133 165 215 258 197 181 172 172 185 182 192 199 183 195 187 195 255 159 169 168 182 190 182 183 180 179 181 179 181 178 181 180 173 172 176 180 179 178 178 179 184 179 173 172 172 173 172 163 160 158 152 148 141 129 117 110 103 110 113 111 107 95 84 72 67 60 60 62 70 85 92 97 99 99 99 98 96 96 99 100 100 98 97 95 93 91 89 87
135 111 130 167 194 217 216 192 165 138 124 248 239 182 180 175 170 184 193 205 195 188 189 188 195 197 182 182 183 188 190 185 189 188 186 185 183 183 180 181 181 179 177 181 185 180 182 187 184 185 184 179 179 180 179 179 174 169 167 160 153 150 142 133 125 114 116 116 118 115 98 81 69 65 59 62 63 72 86 91 95 98 98 97 97 98 98 100 101 101 99 98 96 94 91 89 86
157 115 166 205 201 240 256 212 169 135 175 215 176 171 180 175 175 187 196 202 184 191 193 193 191 176 182 182 196 191 187 188 190 192 191 187 185 186 185 182 181 182 181 185 187 180 184 190 190 188 187 186 185 187 185 184 183 175 172 169 163 161 159 150 137 127 121 117 124 119 103 82 69 71 66 66 69 78 89 92 94 95 97 98 99 100 100 102 101 100 99 98 96 93 91 87 85
149 140 199 198 145 329 161 216 148 124 226 200 155 168 176 174 195 198 187 192 177 187 196 197 195 186 190 161 195 191 189 191 189 191 193 188 188 189 189 186 184 185 185 189 190 185 186 190 194 192 189 192 193 194 190 189 190 182 182 180 174 171 171 163 148 139 129 120 128 124 109 88 75 80 74 72 76 86 94 97 98 97 98 98 99 99 99 99 98 99 99 98 96 93 90 86 83
139 137 203 159 90 334 160 359 160 216 209 156 134 166 174 179 209 205 192 206 192 195 201 200 201 201 200 180 190 194 192 190 189 190 191 192 188 190 192 190 190 190 189 193 196 193 191 193 197 193 191 195 199 200 194 194 193 188 192 188 181 181 180 175 161 155 150 132 131 131 126 116 104 100 84 79 85 92 98 102 103 101 99 97 97 97 99 99 99 100 98 97 94 91 88 85 82
145 124 76 128 138 174 192 293 171 229 201 141 156 168 176 191 204 203 215 225 210 212 213 202 203 204 196 188 178 194 196 189 190 191 190 194 190 192 196 192 192 194 195 195 199 200 198 200 201 197 196 197 198 201 200 198 197 194 197 194 191 189 187 186 177 176 171 149 139 145 148 144 139 131 106 94 100 101 100 104 107 107 103 101 99 99 100 102 102 100 97 94 90 88 86 84 81
145 124 85 152 164 199 191 199 170 229 188 142 166 168 175 201 202 200 216 222 225 220 218 205 204 209 185 182 161 185 197 192 190 193 193 194 194 195 197 197 196 196 199 199 201 204 204 206 207 204 199 202 201 200 202 202 202 202 200 200 199 195 194 193 188 191 187 166 157 157 158 158 161 164 148 121 118 115 110 107 111 114 110 107 105 104 105 104 103 100 96 93 88 85 83 82 80
144 139 199 186 184 203 179 178 179 203 157 150 169 176 180 189 200 209 218 216 221 225 223 223 219 222 213 189 175 177 193 196 194 194 195 196 197 198 198 200 201 199 200 202 205 206 207 209 212 209 201 206 206 199 202 204 207 207 205 205 203 202 199 198 196 197 194 181 173 170 169 169 175 183 177 156 140 132 125 118 117 120 115 113 112 111 111 109 106 101 97 94 90 87 83 81 79
151 174 210 205 186 181 178 184 181 38 167 169 176 186 193 183 185 204 218 213 219 235 233 234 233 227 225 215 205 193 192 200 201 200 199 199 200 202 200 201 203 203 202 203 207 209 209 210 213 213 208 209 208 204 204 207 210 209 209 208 205 207 204 204 205 200 197 192 186 181 179 179 186 193 192 180 162 150 141 134 128 127 124 120 119 118 117 115 112 106 101 97 92 89 84 81 79
132 138 217 217 173 148 172 185 173 254 284 161 171 186 196 196 176 194 218 203 203 230 236 235 237 233 232 230 225 223 214 209 209 207 205 204 206 208 205 202 204 205 205 206 208 209 210 212 215 217 215 213 211 210 211 212 212 210 214 211 206 209 206 208 211 206 201 198 196 191 186 188 194 199 200 194 177 166 159 153 145 139 136 133 130 127 124 123 119 113 106 100 96 94 87 81 79
101 185 227 215 135 124 175 186 170 110 316 157 167 182 194 206 182 192 219 208 201 230 231 225 233 235 236 237 234 234 233 225 218 216 213 211 212 214 213 210 208 209 210 210 211 209 209 214 218 222 221 219 217 217 220 222 218 214 217 214 210 211 209 210 214 210 205 202 204 198 191 195 201 205 204 197 185 181 177 169 163 157 151 148 147 140 134 134 133 123 111 104 102 99 90 85 85
132 200 256 52 123 142 153 185 185 186 343 163 161 171 193 205 196 196 207 224 224 234 236 234 237 238 241 244 242 240 241 237 227 223 221 219 218 218 220 219 215 215 213 212 213 211 210 213 218 221 223 222 218 215 221 226 226 221 220 223 220 216 214 215 215 213 209 208 208 205 199 199 207 213 209 200 194 191 190 183 177 173 168 161 160 159 151 154 159 145 126 122 114 104 98 96 97
125 63 358 60 129 86 129 184 203 220 228 164 162 170 195 191 202 208 207 230 236 234 240 242 246 247 251 250 243 242 242 241 235 230 228 227 226 224 224 225 223 222 219 215 213 213 214 216 218 219 220 218 214 209 210 218 225 225 225 230 229 224 223 223 217 212 213 213 211 212 206 201 207 217 217 210 203 200 199 193 186 182 179 175 169 175 187 183 180 172 162 153 123 109 115 115 114
146 80 102 118 87 52 130 189 213 216 204 177 179 193 195 185 212 221 219 233 239 242 244 242 247 250 255 251 243 242 241 242 241 239 237 234 235 233 232 232 230 228 228 226 220 218 218 220 222 222 221 217 212 208 209 215 222 227 229 232 231 225 227 231 223 210 214 218 216 216 212 207 211 218 221 218 210 208 207 199 194 189 181 180 178 185 198 185 179 173 168 174 81 37 87 114 122
205 122 147 153 86 42 112 187 203 196 204 205 201 208 194 196 225 233 231 237 239 244 250 250 255 256 258 257 250 247 247 249 248 245 241 241 241 239 238 238 236 234 235 236 232 228 225 225 225 227 228 225 217 212 215 220 220 220 221 227 231 222 220 231 232 218 214 219 221 220 216 213 215 218 220 222 216 211 211 203 200 196 184 183 190 196 197 183 186 169 143 156 218 316 332 66 94
82 127 152 153 97 81 112 124 156 174 206 205 199 209 202 217 244 263 249 246 245 247 252 254 256 257 256 258 258 253 251 251 252 248 241 240 240 239 239 238 238 237 239 241 240 238 235 231 228 228 229 228 223 218 220 222 217 212 212 219 230 227 221 227 235 230 221 221 224 224 222 218 218 219 217 221 222 215 211 205 203 201 189 189 198 203 200 193 201 188 140 165 165 297 305 354 39
82 118 136 137 106 109 120 125 137 159 184 180 195 207 220 239 262 266 255 255 257 252 253 255 255 255 255 255 255 255 255 255 255 254 248 244 241 240 239 236 236 238 240 241 241 241 238 234 230 227 224 224 223 220 221 222 214 209 211 217 226 229 228 227 231 232 230 227 225 227 229 227 224 222 218 220 225 218 211 208 206 201 192 194 205 209 205 203 212 209 189 163 132 308 290 324 18
104 111 106 91 92 104 121 150 150 163 164 179 215 222 231 230 244 257 252 253 257 254 251 253 254 256 256 255 253 253 254 256 256 255 251 247 243 242 240 239 238 238 240 240 241 240 236 233 230 225 222 221 223 222 221 220 214 213 216 219 225 228 226 224 227 230 231 229 226 228 231 231 230 231 231 228 228 221 214 215 210 201 195 197 205 212 214 203 206 207 191 168 104 321 305 318 166
103 120 111 72 72 100 100 172 173 197 175 185 235 266 244 149 211 244 243 243 252 257 253 251 253 254 256 256 255 255 254 254 254 252 250 248 247 246 245 244 243 242 242 242 243 242 239 235 231 227 224 222 223 225 223 221 219 220 223 224 227 230 225 222 225 227 226 226 226 232 234 231 231 238 241 236 232 225 221 221 213 203 199 201 200 205 216 205 205 214 212 198 129 332 311 295 166
101 114 130 81 97 156 93 348 252 242 228 163 157 268 239 199 227 241 242 251 256 260 259 255 253 252 254 255 255 256 255 255 253 251 250 250 250 249 248 246 245 245 245 245 245 243 240 237 234 231 230 228 228 228 227 225 225 227 229 230 230 229 224 222 223 223 223 223 226 235 237 230 232 242 240 236 239 234 229 227 218 207 202 207 203 199 209 210 212 217 212 200 190 280 291 266 168
109 80 334 127 199 209 94 27 278 240 221 161 162 267 240 207 229 240 245 253 258 260 260 259 257 257 257 256 257 257 256 256 254 254 252 251 250 248 246 244 242 242 242 243 242 241 239 236 235 234 234 234 234 235 233 230 229 230 232 231 229 222 219 222 224 224 223 221 225 234 235 232 237 238 228 230 240 234 230 230 223 212 205 207 201 196 208 218 214 208 204 209 207 240 265 232 192
101 74 273 146 234 182 89 48 273 226 198 164 188 260 258 229 226 233 248 255 260 262 262 263 263 261 259 258 259 258 258 257 256 256 253 251 249 246 245 244 241 240 240 240 240 240 239 237 236 236 236 236 238 239 238 236 234 233 233 231 226 217 216 221 223 222 222 223 228 231 231 231 232 227 226 238 240 232 230 231 226 216 210 207 201 201 211 224 216 203 208 222 208 223 248 221 206
56 218 178 128 242 188 85 63 57 264 192 174 204 254 267 272 266 235 254 261 262 262 262 266 267 265 262 261 262 262 260 258 256 255 252 249 246 243 243 243 241 240 240 240 240 240 240 239 238 237 238 238 239 240 239 240 237 235 234 232 227 218 215 218 220 220 223 230 234 230 228 227 224 226 241 249 239 230 231 236 230 219 212 203 202 207 207 218 215 205 213 221 214 230 240 220 214
95 252 213 153 222 249 106 107 73 326 340 204 224 263 277 278 294 220 227 277 288 280 276 273 271 271 268 265 265 264 262 261 257 254 254 252 248 245 243 242 242 242 242 241 241 242 242 242 241 240 240 239 240 240 240 240 239 237 234 233 231 222 215 215 218 219 219 224 228 228 227 223 221 229 242 241 237 231 228 236 232 221 215 204 200 204 208 214 210 211 220 211 213 235 232 215 214
168 220 240 192 221 248 247 138 103 314 265 230 229 247 259 260 268 261 265 283 290 286 281 279 277 275 273 271 267 264 264 263 260 257 260 260 257 252 248 246 244 243 243 242 242 242 243 244 244 243 242 241 240 240 240 239 238 237 233 230 229 225 218 213 214 218 218 219 225 227 226 225 225 227 233 233 231 230 227 228 222 219 220 212 202 202 211 213 205 217 227 207 207 228 227 214 216
180 191 209 220 215 228 268 261 115 209 241 239 233 240 255 259 263 267 271 276 276 272 274 275 275 275 273 271 268 266 265 264 261 261 264 264 261 258 253 250 247 245 244 244 244 244 244 246 247 247 245 243 242 240 240 238 236 234 231 226 221 220 221 217 217 220 222 224 224 223 224 226 220 219 230 230 225 226 224 216 209 214 219 215 208 204 210 208 204 216 221 209 206 216 226 218 220
127 155 195 208 230 233 243 260 52 310 249 247 246 252 262 262 262 265 268 270 268 268 271 271 272 273 272 270 268 266 265 263 262 264 266 263 260 258 255 252 249 247 246 246 246 246 246 247 248 249 248 246 242 240 239 238 234 230 227 221 216 218 222 225 225 222 223 224 221 217 217 221 221 225 231 221 217 222 222 221 220 221 220 220 218 217 224 219 212 213 210 213 217 215 216 216 223
101 119 177 199 255 263 194 124 46 29 265 257 249 266 274 271 267 266 267 267 263 260 261 264 268 271 271 271 270 268 266 265 265 267 267 264 260 257 256 254 251 248 246 246 247 248 248 248 249 249 249 247 244 241 240 238 235 232 226 219 217 220 222 226 225 220 218 216 215 214 215 221 231 238 230 216 218 224 225 231 231 224 222 224 225 230 236 224 215 214 210 216 228 220 210 210 219
106 163 223 228 244 256 140 76 28 102 261 268 272 285 279 276 273 269 267 262 258 255 251 256 262 267 269 270 270 270 269 268 267 267 266 264 263 260 257 254 252 250 249 248 248 248 249 248 248 248 248 247 245 242 240 238 237 234 230 224 221 220 218 219 220 217 215 214 220 224 223 226 232 235 229 226 231 229 224 228 226 220 218 220 222 223 225 218 215 217 216 218 223 220 217 215 212
136 168 238 254 249 264 180 78 35 146 238 277 317 297 282 280 278 270 262 254 257 258 255 257 262 264 267 269 271 271 272 272 270 268 266 265 264 263 261 257 254 252 251 249 248 248 249 249 248 248 248 246 244 242 239 238 236 233 230 226 224 220 215 218 221 217 216 221 229 226 222 224 227 229 230 234 236 227 219 221 224 221 215 213 215 214 214 215 213 212 217 223 219 213 218 220 207
196 188 219 247 339 276 251 83 73 171 237 296 313 297 282 279 275 267 258 250 255 262 260 262 263 264 265 267 270 270 272 274 273 272 271 269 268 266 264 262 258 253 250 248 247 247 248 249 248 247 247 246 244 242 238 237 235 230 227 221 217 217 218 223 222 217 217 219 221 221 220 219 219 222 228 237 233 218 212 217 223 221 213 208 211 216 216 213 211 212 220 225 220 214 214 214 205
212 214 224 240 229 225 259 10 356 217 207 283 298 288 270 263 265 268 264 251 257 262 261 263 262 262 266 268 268 267 268 270 271 273 273 273 272 271 269 265 259 254 250 250 249 249 249 249 248 248 247 246 243 241 238 236 233 229 225 217 212 213 217 220 218 217 218 217 218 218 216 213 213 217 226 238 226 210 211 221 224 222 216 211 215 223 223 215 215 223 226 222 219 219 214 209 203
219 220 223 238 252 215 229 354 323 264 225 158 304 285 261 227 263 265 266 274 263 243 240 258 261 263 265 267 267 267 267 268 270 271 272 274 273 272 270 265 260 255 251 249 248 248 248 247 247 246 246 245 243 240 237 236 233 230 227 221 217 214 214 216 217 219 220 219 219 216 213 214 217 221 228 239 230 214 211 218 221 222 222 221 223 224 221 218 222 225 223 218 217 218 216 213 205
227 218 223 233 246 92 204 265 283 277 288 144 234 276 278 288 273 266 262 271 274 256 242 254 259 263 265 266 269 269 268 269 270 272 273 273 272 270 268 265 261 257 252 249 247 246 246 245 245 245 245 245 243 241 238 235 232 230 228 225 223 219 217 219 218 218 219 219 218 216 218 224 228 229 228 233 233 225 220 222 221 219 221 223 221 218 217 222 226 222 217 216 214 211 214 218 210
196 62 190 188 179 199 208 205 239 285 327 255 185 236 277 276 265 267 262 265 275 274 263 255 253 262 268 271 273 271 269 268 268 269 268 267 268 268 266 262 258 254 251 248 246 245 245 245 245 245 245 244 242 240 237 235 232 229 226 224 223 221 222 223 219 218 221 221 220 222 230 233 231 229 224 225 230 230 230 229 224 220 218 218 218 219 220 222 222 218 213 211 208 207 211 218 215
3 80 100 134 150 169 157 176 227 331 322 266 172 166 266 270 234 201 254 256 270 272 267 263 259 267 275 280 280 273 265 260 257 255 251 249 260 270 266 258 249 244 243 242 242 243 245 245 245 245 244 242 240 238 235 234 232 229 225 223 222 220 221 223 221 222 224 222 223 229 232 228 225 224 223 226 230 231 231 228 223 218 213 214 220 223 221 218 217 215 211 206 202 204 209 213 215
132 140 100 91 85 77 97 219 174 105 284 261 166 170 257 286 232 159 158 237 254 264 267 273 279 283 288 291 290 272 245 231 222 210 201 211 277 291 279 266 253 245 241 241 241 241 242 244 245 245 244 242 239 237 235 233 231 227 223 223 223 219 216 217 221 225 226 223 224 227 224 222 224 228 230 233 233 232 230 225 219 213 212 218 222 218 215 214 212 211 208 204 201 201 205 207 207
141 145 104 95 85 64 79 34 65 237 266 223 156 178 226 294 263 161 160 201 229 258 273 272 260 266 282 295 311 284 231 206 198 190 201 259 288 287 279 274 267 258 251 248 246 242 240 241 242 244 245 243 240 236 234 232 229 226 222 222 223 221 219 219 224 227 226 226 226 223 220 224 230 232 235 236 233 230 224 218 214 213 216 220 215 212 212 209 206 206 206 205 203 201 204 205 204
150 152 134 128 123 131 131 115 147 234 250 116 115 186 214 255 253 136 103 317 263 260 278 278 266 255 269 276 283 283 261 237 226 224 243 268 281 282 273 266 262 259 258 256 253 249 244 240 241 242 244 244 240 235 233 231 228 227 224 220 220 222 223 224 227 226 226 229 229 222 222 228 232 233 234 231 228 224 217 213 214 215 215 213 210 211 209 204 202 204 205 204 204 203 205 207 208
219 160 162 191 199 195 226 201 179 232 237 47 9 289 225 244 259 290 294 280 262 242 245 259 268 271 273 274 273 271 264 258 252 250 264 280 286 284 273 263 256 253 254 255 254 252 248 244 241 241 242 244 241 235 232 230 228 227 225 222 221 222 223 223 225 225 227 231 227 223 228 234 234 236 235 230 224 219 215 215 215 213 210 210 210 208 204 202 204 205 205 204 205 205 205 207 211
199 178 174 198 190 206 231 194 205 266 234 44 340 233 244 262 276 280 269 269 272 260 250 254 260 266 270 271 270 269 265 264 262 265 278 287 287 281 271 260 251 248 250 251 252 252 250 248 244 241 241 243 243 236 231 230 228 227 225 224 225 224 220 218 219 222 227 230 225 226 234 237 237 240 243 238 227 218 217 219 215 210 209 210 208 204 202 203 205 206 206 206 206 207 208 209 211
196 189 179 206 196 210 229 198 221 253 125 75 323 217 227 246 314 295 260 277 290 286 272 261 260 262 265 269 270 269 267 267 268 274 283 283 276 266 255 248 245 246 248 249 251 250 249 248 245 242 240 242 244 237 231 230 229 227 226 226 228 226 222 218 218 222 226 226 225 230 234 234 237 243 247 241 226 219 221 220 214 211 210 209 205 203 204 206 205 206 207 207 208 209 210 210 211
193 70 199 231 220 197 242 313 180 79 46 186 201 244 240 248 306 290 269 280 287 284 281 273 265 262 264 270 271 271 271 269 269 274 275 264 254 244 237 236 239 244 248 251 254 252 251 250 247 245 242 243 246 241 234 232 231 229 227 227 228 226 223 218 218 221 222 222 227 231 230 231 234 236 239 236 224 220 223 221 217 215 210 206 205 204 206 207 207 208 208 209 210 210 211 212 212
162 171 200 225 331 106 155 234 82 86 266 236 190 246 264 281 288 267 248 256 263 272 276 270 269 270 272 272 270 272 273 264 257 257 242 230 230 230 231 233 238 247 253 256 259 257 256 254 250 248 245 244 246 245 238 234 233 231 228 229 228 225 224 220 218 220 222 225 230 228 224 225 227 226 229 230 224 221 223 223 222 218 210 206 205 206 208 209 209 210 211 211 212 212 213 213 213
141 190 190 139 22 23 202 234 183 183 247 249 193 234 255 265 273 268 233 251 254 261 263 260 266 269 268 266 268 272 269 254 240 219 205 204 206 203 206 213 233 259 267 268 265 259 255 253 250 249 248 248 250 250 243 236 234 233 231 230 228 225 224 221 220 222 224 229 229 222 219 223 222 222 224 225 225 224 225 226 225 219 211 207 207 208 209 210 210 211 213 213 214 214 214 214 214
45 225 167 121 224 211 186 214 223 215 233 242 219 239 248 237 244 262 255 243 243 251 252 252 259 258 258 262 265 269 266 255 229 198 191 181 168 156 143 139 142 190 277 283 276 270 263 256 253 249 248 249 251 251 246 239 236 233 232 232 229 226 224 221 222 222 223 229 226 218 221 226 225 224 224 223 225 226 227 228 227 220 212 208 209 210 211 211 211 213 214 215 215 215 216 216 215
25 335 173 272 262 223 190 188 216 228 227 238 248 257 251 232 221 230 242 242 235 235 239 240 246 251 257 260 261 267 268 247 202 186 181 166 157 153 150 155 160 174 220 269 275 281 277 267 262 255 249 248 248 248 245 240 236 234 233 232 230 228 224 222 222 222 225 229 223 217 224 232 229 226 223 224 226 227 227 230 229 221 212 210 211 211 212 213 213 214 216 217 216 216 217 216 217
174 195 190 193 202 275 274 229 153 246 235 235 250 263 264 249 180 190 227 238 228 224 231 236 243 251 257 262 266 267 250 197 180 179 172 165 163 163 167 177 195 210 236 264 270 276 276 272 269 262 256 252 249 249 247 242 238 234 233 233 230 229 226 223 222 224 227 227 222 222 230 233 229 226 224 224 226 226 227 230 230 221 213 212 213 213 214 214 215 216 217 218 218 218 217 216 217
188 196 195 199 188 163 220 220 169 254 255 230 232 264 268 257 155 194 221 228 226 223 223 231 246 249 253 268 277 254 190 175 182 180 171 167 169 172 179 195 219 243 277 286 278 272 268 268 267 262 260 257 254 253 251 246 241 236 233 232 230 229 226 224 225 226 225 224 226 230 232 230 228 225 225 227 228 228 230 231 228 220 214 214 215 215 216 215 216 218 218 219 218 217 217 216 217